Orbital Elements at Epoch 2459200.5 (2020-Dec-17.0) TDB
Reference: JPL 27 (heliocentric ecliptic J2000)
Element | Value | Uncertainty (1-sigma) | Units |
e | .09577120220395731 | 3.4044e-08 | |
a | 2.313944616950088 | 9.1276e-09 | au |
q | 2.092335359151403 | 8.019e-08 | au |
i | 7.376954488706167 | 3.5791e-06 | deg |
node | 127.3747472008362 | 3.0992e-05 | deg |
peri | 106.6662190333489 | 3.7308e-05 | deg |
M | 277.1853460080388 | 2.1646e-05 | deg |
tp | 2459496.255314946569 (2021-Oct-08.75531495) | 7.7832e-05 | TDB |
period | 1285.665135920269 3.52 | 7.6072e-06 2.083e-08 | d yr |
n | .2800107041421131 | 1.6568e-09 | deg/d |
Q | 2.535553874748774 | 1.0002e-08 | au |
|
| | Orbit Determination Parameters
Additional Information
|